Flag for U.S.A. Weather past 2 weeks in New York, New York, U.S.A.

Now
38 °F

Partly sunny.


Feels Like: 31 °F
Forecast: 35 / 43 °F
Wind: 9 mph from Northwest

Location: New York City - Central Park

Current Time: Dec 18, 2014 at 9:09:12 AM

Latest Report: Dec 18, 2014 at 7:51 AM


Visibility: 10 mi

Pressure: 29.96 "Hg

Humidity: 51%

Dew point: 21 °F

Location of New YorkLocation

Historic Weather in New York — Graph

°F

New York temperature yesterday

Maximum temperature yesterday: 53 °F (at 12:51 PM)
Minimum temperature yesterday: 42 °F (at 11:51 PM)
Average temperature yesterday: 47 °F

Past Weeks' High & Low Weather Summary

 TemperatureHumidityPressure
High53 °F (Dec 17, 12:51 PM)96% (Dec 6, 1:02 PM)30.68 "Hg (Dec 6, 1:02 PM)
Low25 °F (Dec 8, 4:51 AM)27% (Dec 7, 11:51 PM)29.58 "Hg (Dec 10, 2:51 PM)
Average39 °F67%30.07 "Hg
* Reported Dec 3 7:51 AM — Dec 18 7:51 AM, New York, Weather by CustomWeather, © 2014

Note: Actual official high and low records may vary slightly from our data, if they occured in-between our weather recording intervals... More about our weather records

Advertising

New York weather history for previous 24 hours

 ConditionsComfort  
Time TempWeatherWind HumidityBarometerVisibility
7:51 AM
Dec 18
38 °FPartly sunny.9 mph51%29.96 "Hg10 mi
6:51 AM38 °FOvercast.9 mph51%29.95 "Hg10 mi
5:51 AM38 °FPassing clouds.9 mph53%29.93 "Hg10 mi
4:51 AM39 °FPassing clouds.8 mph50%29.91 "Hg10 mi
3:51 AM40 °FOvercast.7 mph53%29.90 "Hg10 mi
2:51 AM41 °FMostly cloudy.10 mph49%29.90 "Hg10 mi
1:51 AM41 °FOvercast.9 mph53%29.88 "Hg10 mi
12:51 AM41 °FOvercast.12 mph53%29.87 "Hg10 mi
11:51 PM
Dec 17
42 °FOvercast.8 mph53%29.88 "Hg10 mi
10:51 PM43 °FOvercast.10 mph51%29.89 "Hg10 mi
9:51 PM44 °FOvercast.10 mph53%29.89 "Hg10 mi
8:51 PM45 °FMostly cloudy.8 mph60%29.89 "Hg10 mi
7:51 PM45 °FOvercast.3 mph68%29.88 "Hg10 mi
6:51 PM47 °FMostly cloudy.N/A61%29.87 "Hg10 mi
5:51 PM49 °FMostly cloudy.6 mph57%29.86 "Hg10 mi
4:51 PM49 °FMostly cloudy.7 mph61%29.84 "Hg10 mi
3:51 PM51 °FMostly cloudy.10 mph54%29.83 "Hg10 mi
2:51 PM51 °FOvercast.9 mph54%29.81 "Hg10 mi
1:51 PM52 °FOvercast.12 mph57%29.80 "Hg10 mi
12:51 PM53 °FOvercast.5 mph55%29.80 "Hg10 mi
11:51 AM52 °FPartly sunny.7 mph59%29.82 "Hg10 mi
10:51 AM50 °FPassing clouds.8 mph66%29.84 "Hg10 mi
9:51 AM48 °FSunny.5 mph74%29.86 "Hg10 mi
Weather by CustomWeather, © 2014

See weather overviewHow to use our weather pages